EHI
16 26 40 47 46 41 36 34 32 29 27 26 27 28 27 26 24 22 19 17 15 12 11 13 13 11 10 8 7 7 8 9 9 9 7 8 10 12 11 8 6 7 10
20 28 41 48 46 41 36 34 32 28 26 24 23 24 25 25 25 22 18 16 14 12 13 13 11 10 10 10 9 9 10 11 12 11 7 6 8 10 10 8 6 6 8
27 29 38 46 46 41 35 32 31 27 23 20 18 18 19 22 24 22 19 17 15 14 13 12 10 9 10 12 11 11 11 12 12 10 7 4 5 7 8 7 5 5 7
32 29 34 43 44 38 32 28 27 24 20 17 16 14 14 17 21 20 19 18 16 14 11 9 9 9 10 11 11 10 9 10 10 8 5 4 5 7 9 9 8 7 8
31 29 33 40 40 34 27 24 22 19 18 17 15 13 13 14 16 16 16 16 13 9 7 7 8 9 9 9 8 8 7 8 8 6 3 4 7 12 13 13 13 13 12
27 28 32 38 39 32 26 22 19 17 17 18 15 14 14 12 11 11 12 13 10 6 4 5 6 7 7 7 7 6 5 5 4 3 2 3 8 14 16 16 16 16 16
25 26 31 38 39 34 27 22 20 18 18 18 17 15 13 11 10 9 8 8 7 6 4 3 4 6 6 5 5 5 3 2 2 1 1 1 6 13 15 16 15 14 13
27 26 31 36 38 35 29 24 20 19 19 19 18 15 11 9 10 10 8 5 6 6 5 4 5 6 6 5 4 4 2 2 2 2 1 2 6 11 15 16 14 11 10
29 28 28 32 35 34 30 25 22 21 21 20 18 14 9 6 6 8 7 4 5 7 7 6 6 6 6 6 5 4 3 2 2 2 1 3 7 11 15 18 15 12 10
28 27 26 29 31 30 27 26 24 22 21 19 15 12 8 3 2 3 3 3 4 6 6 6 6 6 6 6 5 3 3 2 3 2 1 3 9 13 15 16 15 13 12
23 24 25 26 26 23 21 22 21 20 18 14 10 9 6 2 0 0 1 1 2 2 2 3 4 4 4 5 4 3 3 4 4 3 2 5 10 13 14 15 15 14 13
19 21 22 22 19 15 13 14 15 14 11 9 7 6 5 3 1 1 0 0 0 0 0 1 2 2 3 5 5 4 5 6 6 4 3 6 11 13 14 16 16 14 13
19 18 16 13 10 8 6 6 7 8 7 6 6 5 5 4 2 1 0 0 0 0 1 1 2 3 4 6 6 5 6 6 6 4 4 8 13 14 15 16 15 13 11
17 15 11 7 5 4 4 3 4 5 5 6 5 4 4 3 3 2 0 0 1 1 2 3 4 4 5 5 4 4 5 5 5 4 4 8 13 15 15 15 14 12 11
14 13 9 6 5 5 5 4 4 4 5 5 4 3 3 3 3 2 0 0 1 2 3 4 4 5 5 3 2 1 2 3 3 3 3 6 11 14 14 14 14 14 12
12 11 10 9 8 6 6 7 6 5 4 4 3 3 2 2 2 1 0 1 1 2 2 2 2 3 3 1 1 0 0 1 2 1 2 4 7 10 12 12 14 13 12
12 12 12 11 9 8 8 9 8 5 3 3 2 1 1 1 1 0 0 1 2 2 1 0 1 1 1 1 1 0 0 0 0 0 1 2 4 7 8 10 11 10 9
13 13 14 14 13 10 11 12 10 6 3 2 1 1 1 1 1 0 0 1 1 1 0 0 0 0 0 0 0 0 0 0 0 0 0 1 2 3 5 7 7 7 8
16 16 16 17 16 13 13 14 12 8 4 3 2 2 2 2 3 1 0 0 1 1 0 0 0 0 0 0 0 0 0 0 0 0 0 0 1 1 2 3 4 5 6
18 18 18 19 17 14 14 14 13 10 6 4 3 3 3 3 3 2 1 1 1 1 0 0 0 0 0 0 0 0 0 0 0 0 0 0 0 0 0 1 2 3 3
19 19 20 19 17 15 14 12 11 9 6 4 2 2 4 5 4 3 2 1 1 1 0 0 0 0 0 0 0 0 0 0 0 0 0 0 0 0 0 0 0 0 1
19 20 20 18 17 14 12 11 9 7 5 4 2 3 5 6 4 3 2 1 0 0 0 0 0 0 0 0 0 0 0 0 0 0 0 0 0 0 0 0 0 0 0
17 18 17 16 14 12 11 10 8 6 5 4 3 2 4 5 4 2 1 0 0 0 0 0 0 0 0 0 0 0 0 0 0 0 0 0 0 0 0 0 0 0 0
15 14 14 13 11 9 8 9 8 6 5 3 1 1 1 2 1 1 0 0 0 0 0 0 0 0 0 0 0 0 0 0 0 0 0 0 0 0 0 0 0 0 0
12 11 11 10 9 7 6 7 7 4 3 2 1 0 0 0 0 0 0 0 0 0 0 0 0 0 0 0 0 0 0 0 0 0 0 0 0 0 0 0 0 0 0
9 9 9 8 7 5 4 5 5 2 1 1 1 1 0 0 0 0 0 0 0 0 0 0 0 0 0 0 0 0 0 0 0 0 0 0 0 0 0 0 0 0 0
Wind_Speed
5 7 12 12 12 12 12 12 12 13 13 13 13 13 13 13 13 13 13 13 13 12 13 12 11 11 11 11 11 12 12 12 11 12 13 13 13 13 13 13 13 9 14
10 9 14 13 13 13 12 12 12 12 12 12 12 12 12 12 12 12 12 12 12 12 12 11 10 10 10 10 10 10 10 10 10 11 12 12 12 12 13 13 12 8 13
12 9 12 14 14 13 13 12 12 12 12 12 12 11 11 12 12 11 12 11 11 10 11 10 9 9 8 8 8 8 9 8 8 9 9 5 7 11 12 12 13 13 13
12 9 10 14 13 13 13 12 11 12 12 12 11 11 11 11 11 11 11 11 10 9 9 9 8 8 7 7 7 7 7 6 6 7 4 3 5 10 12 12 13 13 13
10 8 11 15 14 13 13 12 11 11 11 11 11 11 11 10 10 9 10 10 10 9 8 8 7 6 6 6 6 5 5 5 5 5 3 3 3 10 12 12 12 12 13
9 8 10 15 14 13 12 12 12 11 11 11 11 11 10 10 9 9 9 9 9 8 7 7 6 6 5 5 4 4 3 4 4 3 3 3 4 9 12 13 12 12 12
9 7 9 13 13 13 12 12 12 11 10 10 10 10 10 9 8 8 8 8 8 7 7 6 5 5 5 4 4 3 3 4 3 3 3 3 4 10 11 12 12 12 12
10 7 8 12 12 12 12 11 11 10 10 9 8 9 9 9 8 8 8 8 7 7 7 6 5 5 4 4 4 3 3 3 4 3 2 3 6 9 11 11 12 11 11
9 7 5 6 8 11 11 10 10 9 9 9 8 8 8 8 8 8 8 8 7 7 6 6 6 5 5 5 4 3 3 3 2 2 4 3 7 10 11 11 11 11 11
7 6 5 4 4 4 6 9 9 9 9 8 8 8 8 8 8 8 7 7 7 7 6 6 6 6 5 5 4 4 4 3 1 2 2 5 10 11 11 11 12 11 11
7 4 4 4 4 4 4 6 7 8 8 7 5 7 6 3 3 4 5 6 7 7 6 6 6 5 5 5 5 5 4 1 2 2 2 7 10 11 11 11 11 11 11
7 6 4 4 4 4 4 3 2 3 3 3 3 3 2 2 2 3 4 5 5 5 5 5 6 5 4 2 3 4 2 3 3 2 4 9 10 11 11 11 10 10 11
7 6 5 5 5 4 3 3 2 1 2 2 3 3 2 1 1 1 1 2 2 3 2 2 3 1 1 1 1 2 3 3 2 3 4 9 10 11 11 11 10 10 10
6 5 5 5 5 4 4 3 2 1 2 2 2 3 2 1 1 1 1 1 1 1 1 1 1 1 1 2 2 2 3 2 2 2 4 10 11 11 11 11 11 10 10
6 4 4 5 5 4 4 3 3 2 2 2 2 3 3 2 2 2 1 1 1 1 1 1 1 1 1 2 1 2 2 3 4 4 3 10 11 11 11 12 11 11 11
8 6 5 5 5 5 4 3 3 3 2 2 2 2 3 3 2 2 2 1 1 1 1 2 2 1 1 1 1 1 2 3 3 3 3 5 9 10 11 12 11 11 11
7 6 6 6 6 5 4 3 3 3 3 2 2 2 3 3 3 2 2 2 1 1 1 1 1 1 1 0 1 1 1 2 3 4 3 3 4 8 10 11 11 11 12
7 6 6 6 6 5 4 3 2 2 3 2 2 2 2 3 3 2 2 2 2 1 1 1 1 1 0 0 0 1 1 1 2 3 3 3 3 3 6 10 11 11 11
7 6 6 6 6 5 4 2 2 2 2 2 2 2 2 2 3 3 2 2 2 2 1 1 1 1 1 0 1 0 0 1 1 3 3 4 4 4 3 7 10 11 12
6 6 6 6 5 5 3 3 2 2 1 1 2 2 3 2 3 3 2 1 2 2 1 1 1 1 1 1 0 0 0 1 1 1 2 3 3 4 4 4 4 7 12
5 6 6 6 5 4 3 2 2 1 1 1 1 2 3 3 3 2 2 1 2 2 1 1 1 1 0 1 1 1 2 1 0 1 1 1 2 2 2 3 3 3 4
5 6 6 5 5 4 3 2 2 2 1 1 1 1 2 3 3 3 2 2 2 2 1 1 2 1 0 1 2 1 1 2 2 1 1 1 1 1 2 2 3 4 3
4 5 5 5 5 4 4 2 2 2 2 1 1 0 1 2 3 2 2 2 2 2 2 2 2 3 1 0 1 3 2 2 2 2 1 1 1 1 2 2 3 4 4
5 4 4 4 3 3 3 3 4 3 2 2 1 1 1 1 2 2 2 2 2 1 2 2 2 2 3 1 0 1 2 3 2 1 2 1 2 2 2 3 3 3 4
6 5 4 4 3 3 3 3 3 2 2 1 1 1 1 0 1 1 2 2 2 1 1 1 1 2 2 2 2 1 0 0 2 2 2 2 1 2 2 2 2 2 3
5 5 5 5 3 3 3 3 4 3 3 3 2 1 1 0 0 1 2 1 1 1 1 1 1 2 2 2 1 1 2 2 2 2 2 2 2 2 2 2 2 2 3
Wind_Direction
152 156 142 130 122 116 112 109 110 110 109 107 106 105 105 104 106 110 113 115 116 116 115 114 113 113 111 112 115 117 117 122 126 126 127 127 126 125 128 128 126 124 126
154 156 145 136 129 123 120 117 114 113 114 113 111 110 111 112 112 115 117 117 117 118 118 117 117 117 115 113 116 120 119 122 123 127 130 130 130 129 129 129 128 132 131
147 152 146 141 134 130 126 124 121 120 120 120 119 117 116 118 118 118 120 121 122 124 125 124 123 124 120 117 118 122 125 127 130 130 128 127 135 137 133 133 133 135 135
147 149 147 143 138 136 133 131 130 127 127 128 127 125 124 125 126 126 127 126 125 127 130 130 130 131 127 122 121 123 126 132 140 133 123 137 144 141 140 140 139 140 142
142 146 151 146 143 141 139 137 137 135 133 135 136 135 134 133 134 134 135 134 133 132 134 133 135 134 132 129 128 128 129 129 135 124 124 138 140 146 146 145 143 144 145
138 143 151 148 146 145 144 143 144 143 141 141 142 142 142 142 142 143 144 143 141 141 141 142 144 143 140 140 138 140 146 143 131 120 133 146 151 154 153 151 150 148 146
139 144 150 147 148 149 150 150 150 150 149 146 146 149 150 149 148 149 151 150 149 150 151 155 156 156 161 163 158 150 156 159 130 123 143 157 163 159 157 158 156 152 149
140 144 147 148 149 152 155 157 156 156 155 152 152 153 154 154 155 155 157 159 160 161 163 166 171 176 181 184 186 182 180 180 146 143 156 168 168 163 160 161 158 158 154
134 137 141 149 151 154 156 157 157 158 155 154 152 154 158 164 168 168 170 173 173 174 177 181 187 196 204 209 214 213 201 186 148 166 175 168 167 165 165 166 164 163 163
129 137 143 140 140 146 155 158 156 154 150 150 152 159 163 171 178 178 180 188 189 187 190 198 205 214 223 229 233 226 214 197 178 177 172 171 168 168 168 171 173 170 169
129 142 144 141 139 144 154 160 155 155 150 148 156 164 162 164 173 179 183 187 194 199 204 212 223 226 233 243 240 230 214 176 180 187 187 173 169 170 167 173 176 174 173
153 159 153 144 141 139 152 137 138 146 149 150 151 150 139 147 174 178 191 197 206 206 213 220 232 238 239 243 239 228 189 176 185 193 192 180 176 171 168 173 178 178 179
161 158 160 158 153 150 140 134 134 129 142 158 157 148 142 141 153 176 171 217 232 227 234 248 254 245 233 230 218 206 196 184 188 199 195 185 182 179 175 175 178 180 184
158 165 163 163 152 147 135 136 140 148 156 166 169 155 145 141 148 166 170 189 209 233 229 235 236 233 239 246 229 206 196 185 193 199 202 193 190 186 181 178 180 183 188
159 159 164 158 150 146 135 149 153 173 172 171 165 159 153 156 165 172 176 162 194 201 197 203 230 230 233 250 233 190 178 186 194 200 202 198 192 189 189 189 188 188 190
158 157 166 165 161 148 144 156 157 166 166 155 153 159 157 154 162 162 163 161 195 206 203 203 206 210 218 222 236 185 183 180 193 193 198 197 197 195 196 197 195 195 195
158 156 164 155 147 144 148 152 151 160 153 154 164 166 163 156 164 162 157 165 187 191 192 194 193 160 183 211 221 187 171 187 200 193 189 179 196 204 204 204 202 203 202
151 152 157 150 141 144 144 137 144 157 153 166 170 165 170 167 164 156 159 171 163 153 146 160 174 126 106 112 232 230 193 199 189 187 177 181 191 203 209 208 208 210 209
156 151 147 139 141 145 139 128 127 137 149 159 153 156 163 160 154 147 157 160 154 134 130 171 133 140 144 179 220 200 199 214 199 186 184 190 197 201 204 213 214 216 216
149 144 142 140 145 140 127 106 83 82 112 124 143 152 149 149 144 134 135 143 133 116 109 110 129 120 146 180 189 47 279 259 199 191 193 191 199 206 207 214 216 221 222
141 139 143 145 150 145 138 138 140 146 146 122 161 151 146 142 139 134 139 140 136 136 156 148 139 114 79 90 73 12 341 329 313 226 211 193 209 212 200 209 213 210 225
161 150 146 149 153 157 158 161 157 150 163 159 140 120 139 142 148 148 149 149 146 137 127 131 130 131 186 115 117 95 357 339 324 281 232 204 207 201 203 217 216 208 205
153 160 155 158 158 155 147 126 104 79 66 61 67 85 140 156 157 147 147 139 141 138 154 171 154 148 164 256 141 146 149 225 288 313 262 231 217 212 219 223 225 214 207
159 142 130 137 135 139 136 135 140 141 150 191 176 170 166 163 157 151 141 134 136 137 158 179 150 152 145 171 252 207 178 172 168 278 309 281 238 226 228 229 232 218 205
148 139 132 123 117 115 123 140 138 134 154 141 119 122 119 117 143 140 130 128 133 138 141 141 131 134 146 164 187 194 170 169 157 164 248 296 307 268 243 232 230 220 209
137 135 132 129 131 134 128 131 138 139 136 123 119 128 134 70 73 112 123 118 124 125 137 156 147 143 157 163 172 172 174 181 186 173 203 238 263 271 256 237 222 218 209